Location: Austin
(30.3000°N, 97.7500°W)
Time: 04:14:48
(UTC-05:00)

Cosmos 2369 Rocket - Pass Details

Date: 01 October 2024
Orbit: 826 x 853 km, 71.0° (Epoch: 06 October)

Event Time Altitude Azimuth Distance (km) Brightness Sun altitude
Rises 20:35:20 0° 327° (NNW) 3,415 5.9 -18.0°
Reaches altitude 10° 20:38:02 10° 317° (NW) 2,473 5.3 -18.6°
Maximum altitude 20:42:56 31° 257° (WSW) 1,444 4.1 -19.7°
Drops below altitude 10° 20:47:48 10° 197° (SSW) 2,446 4.7 -20.7°
Sets 20:50:29 0° 187° (S) 3,372 5.3 -21.3°
